Location: Unspecified
(0.0000°N, 0.0000°E)
Time: 23:32:50
(UTC+00:00)

OFEQ 9 - Visible Passes

Search period start: 22 October 2019 00:00
Search period end: 01 November 2019 00:00
Orbit: 487 x 492 km, 141.7° (Epoch: 02 October)

Date Brightness Start Highest point End Pass type
(mag) Time Alt. Az. Time Alt. Az. Time Alt. Az.
22 Oct 9.1 19:16:28 10° S 19:18:56 19° SW 19:21:25 10° W visible
23 Oct 7.2 18:52:22 14° SE 18:55:14 53° SW 18:58:37 10° WNW visible
24 Oct 9.9 05:13:31 10° SE 05:13:50 10° SE 05:14:10 10° SSE visible
24 Oct 6.9 18:28:23 11° ESE 18:31:30 47° NE 18:34:50 10° NW visible
24 Oct 9.7 20:02:48 13° WSW 20:02:48 13° WSW 20:03:30 10° W visible
25 Oct 8.3 18:05:30 10° ENE 18:07:48 17° NE 18:10:06 10° N visible
25 Oct 8.4 19:38:47 29° W 19:38:47 29° W 19:40:43 10° WNW visible
26 Oct 7.7 19:14:44 34° NNW 19:14:44 34° NNW 19:16:57 10° NW visible
27 Oct 8.4 18:50:37 16° NNE 18:50:37 16° NNE 18:52:14 10° N visible
